FW7644 Weather Reports


Display with metric or nautical units.
time (UTC)temp
F
wind
direction
speed
MPH
gust
MPH
rain 1hr
in
rain 24hr
in
rain mn
in
humidity
%
barometer
mb
20260831173105 60 0.0 0.0 0.37 1.43 0.42 99 1016.6
20260831172603 60 0.0 0.0 0.36 1.42 0.41 99 1015.9
20260831172102 60 0.0 0.0 0.36 1.42 0.41 99 1015.6
20260831171600 60 0.0 0.0 0.35 1.41 0.40 99 1016.4
20260831171059 61 0.0 0.0 0.24 1.29 0.29 99 1017.4
20260831170557 62 0.0 0.0 0.01 1.06 0.06 99 1016.6
20260831170055 61 0.0 0.0 0.00 1.05 0.05 99 1014.3
20260831165553 62 0.0 0.0 0.00 1.05 0.05 99 1013.6
20260831165052 62 0.0 0.0 0.00 1.05 0.05 99 1013.9
20260831164550 62 0.0 0.0 0.00 1.05 0.05 99 1013.7
20260831164049 62 0.0 0.0 0.00 1.05 0.05 99 1014.2
20260831163547 63 0.0 0.0 0.00 1.05 0.05 99 1014.3
20260831163045 63 0.0 0.0 0.00 1.05 0.05 99 1014.4
20260831162543 64 0.0 0.0 0.00 1.05 0.05 98 1014.6
20260831162042 64 0.0 0.0 0.00 1.05 0.05 96 1014.6
20260831161540 65 0.0 0.0 0.00 1.05 0.05 95 1014.6
20260831161039 65 0.0 0.0 0.00 1.05 0.05 95 1014.8
20260831160537 65 0.0 0.0 0.00 1.05 0.05 96 1015.0
20260831160035 64 0.0 0.0 0.00 1.05 0.05 96 1015.0
20260831155533 66 0.0 0.0 0.00 1.05 0.05 96 1014.9
20260831155031 66 0.0 0.0 0.00 1.05 0.05 97 1014.9
20260831154530 66 0.0 0.0 0.00 1.05 0.05 96 1015.0
20260831154028 66 0.0 0.0 0.00 1.05 0.05 97 1015.2
20260831153526 65 0.0 0.0 0.00 1.05 0.05 99 1015.4
20260831153024 64 0.0 0.0 0.00 1.05 0.05 99 1015.8
20260831152523 64 0.0 0.0 0.00 1.05 0.05 99 1015.9
20260831152021 64 0.0 0.0 0.00 1.05 0.05 99 1016.1
20260831151520 63 0.0 0.0 0.00 1.05 0.05 99 1016.4
20260831151018 62 0.0 0.0 0.00 1.05 0.05 99 1016.5
20260831150516 62 0.0 0.0 0.00 1.05 0.05 99 1016.7
20260831150015 61 0.0 0.0 0.00 1.05 0.05 99 1016.9
20260831145513 61 0.0 0.0 0.01 1.05 0.05 99 1017.1
20260831145011 61 0.0 0.0 0.01 1.05 0.05 99 1017.2
20260831144509 61 0.0 0.0 0.04 1.05 0.05 99 1017.7
20260831144007 61 0.0 0.0 0.04 1.05 0.05 99 1017.8
20260831143505 61 0.0 0.0 0.04 1.05 0.05 99 1017.8
20260831143003 61 0.0 0.0 0.04 1.05 0.05 99 1017.8
20260831142502 61 0.0 0.0 0.05 1.05 0.05 99 1017.8
20260831142000 61 0.0 0.0 0.05 1.05 0.05 99 1018.0
20260831141458 61 0.0 0.0 0.05 1.05 0.05 99 1017.9
20260831140957 60 0.0 0.0 0.05 1.05 0.05 99 1018.4
20260831140455 60 0.0 0.0 0.05 1.05 0.05 99 1018.7
20260831135953 60 0.0 0.0 0.05 1.05 0.05 99 1019.3
20260831135451 60 0.0 0.0 0.05 1.05 0.05 99 1018.9
20260831134950 61 0.0 0.0 0.04 1.04 0.04 99 1019.0
20260831134448 61 0.0 0.0 0.02 1.02 0.02 99 1018.7
20260831133946 61 0.0 0.0 0.01 1.01 0.01 99 1019.0
20260831133444 61 0.0 0.0 0.01 1.01 0.01 99 1019.3
20260831132943 62 0.0 0.0 0.01 1.01 0.01 97 1019.1
20260831132441 64 0.0 0.0 0.00 1.00 0.00 94 1018.5
20260831131939 66 0.0 0.0 0.00 1.00 0.00 92 1016.7
20260831131437 65 0.0 0.0 0.00 1.00 0.00 94 1016.5
20260831130935 64 0.0 0.0 0.00 1.00 0.00 95 1016.5
20260831130432 64 0.0 0.0 0.00 1.00 0.00 96 1016.5
20260831125930 64 0.0 0.0 0.00 1.00 0.00 96 1016.4
20260831125428 64 0.0 0.0 0.00 1.00 0.00 98 1016.6
20260831124926 63 0.0 0.0 0.00 1.00 0.00 98 1016.9
20260831124424 63 0.0 0.0 0.00 1.00 0.00 98 1017.1
20260831123922 64 0.0 0.0 0.00 1.00 0.00 98 1016.7
20260831123419 63 0.0 0.0 0.00 1.00 0.00 95 1016.6
20260831122917 64 0.0 0.0 0.00 1.00 0.00 93 1016.8
20260831122415 65 0.0 0.0 0.00 1.00 0.00 96 1016.8
20260831121913 64 0.0 0.0 0.00 1.00 0.00 97 1016.7
20260831121410 63 0.0 0.0 0.00 1.00 0.00 99 1016.5
20260831120908 62 0.0 0.0 0.00 1.00 0.00 99 1016.4
20260831120406 62 0.0 0.0 0.00 1.00 0.00 99 1016.4
20260831115903 61 0.0 0.0 0.00 1.00 0.00 99 1016.4
20260831115401 61 0.0 0.0 0.00 1.00 0.00 99 1016.5
20260831114859 61 0.0 0.0 0.00 1.00 0.00 99 1016.5
20260831114357 61 0.0 0.0 0.00 1.00 0.00 99 1016.4
20260831113856 61 0.0 0.0 0.00 1.00 0.00 99 1016.5
20260831113354 61 0.0 0.0 0.00 1.00 0.00 99 1016.3
20260831112852 61 0.0 0.0 0.00 1.00 0.00 99 1016.3
20260831112350 61 0.0 0.0 0.00 1.00 0.00 99 1016.3
20260831111849 61 0.0 0.0 0.00 1.00 0.00 99 1016.1
20260831111347 61 0.0 0.0 0.00 1.00 0.00 99 1016.2
20260831110845 61 0.0 0.0 0.00 1.00 0.00 99 1016.3
20260831110344 61 0.0 0.0 0.00 1.00 0.00 99 1016.4
20260831105842 61 0.0 0.0 0.00 1.00 0.00 99 1016.2
20260831105340 61 0.0 0.0 0.00 1.00 0.00 99 1016.0
20260831104838 60 0.0 0.0 0.00 1.00 0.00 99 1015.9
20260831104337 60 0.0 0.0 0.00 1.00 0.00 99 1016.0
20260831103835 60 0.0 0.0 0.00 1.00 0.00 99 1016.0
20260831103334 60 0.0 0.0 0.00 1.00 0.00 99 1015.9
20260831102832 60 0.0 0.0 0.00 1.00 0.00 99 1015.9
20260831102331 60 0.0 0.0 0.00 1.00 0.00 99 1015.8
20260831101829 60 0.0 0.0 0.00 1.00 0.00 99 1015.7
20260831101327 60 0.0 0.0 0.00 1.00 0.00 99 1015.8
20260831100825 60 0.0 0.0 0.00 1.00 0.00 99 1015.7
20260831100324 59 0.0 0.0 0.00 1.00 0.00 99 1015.7
20260831095822 59 0.0 0.0 0.00 1.00 0.00 99 1015.7
20260831095320 59 0.0 0.0 0.00 1.00 0.00 99 1015.6
20260831094819 59 0.0 0.0 0.00 1.00 0.00 99 1015.6
20260831094317 59 0.0 0.0 0.00 1.00 0.00 99 1015.6
20260831093815 59 0.0 0.0 0.00 1.00 0.00 99 1015.7
20260831093313 59 0.0 0.0 0.00 1.00 0.00 99 1015.9
20260831092811 59 0.0 0.0 0.00 1.00 0.00 99 1016.1
20260831092310 59 0.0 0.0 0.00 1.00 0.00 99 1016.3
20260831091808 59 0.0 0.0 0.00 1.00 0.00 99 1016.3
20260831091307 60 0.0 0.0 0.00 1.00 0.00 99 1016.4
20260831090805 60 0.0 0.0 0.00 1.00 0.00 99 1016.5
20260831090304 60 0.0 0.0 0.00 1.00 0.00 99 1016.5
20260831085801 60 0.0 0.0 0.00 1.09 0.00 99 1016.4
20260831085300 60 0.0 0.0 0.00 1.09 0.00 99 1016.4
20260831084758 60 0.0 0.0 0.00 1.09 0.00 99 1016.6
20260831084257 60 0.0 0.0 0.00 1.09 0.00 99 1016.7
20260831083755 60 0.0 0.0 0.00 1.09 0.00 99 1016.5
20260831083254 60 0.0 0.0 0.00 1.09 0.00 99 1016.6
20260831082752 60 0.0 0.0 0.00 1.09 0.00 99 1016.7
20260831082250 60 0.0 0.0 0.00 1.09 0.00 99 1016.6
20260831081749 60 0.0 0.0 0.00 1.09 0.00 99 1016.8
20260831081247 60 0.0 0.0 0.00 1.09 0.00 99 1017.1
20260831080745 60 0.0 0.0 0.00 1.09 0.00 99 1017.1
20260831080244 60 0.0 0.0 0.00 1.09 0.00 99 1017.1
20260831075742 59 0.0 0.0 0.00 1.26 0.00 99 1016.8
20260831075240 60 0.0 0.0 0.00 1.26 0.00 99 1016.8
20260831074738 60 0.0 0.0 0.00 1.26 0.00 99 1017.0
20260831074237 60 0.0 0.0 0.00 1.26 0.00 99 1017.3
20260831073735 60 0.0 0.0 0.00 1.26 0.00 99 1017.5
20260831073234 60 0.0 0.0 0.00 1.26 0.00 99 1017.6
20260831072732 60 0.0 0.0 0.00 1.26 0.00 99 1017.5
20260831072230 60 0.0 0.0 0.00 1.26 0.00 99 1017.1
20260831071729 60 0.0 0.0 0.00 1.26 0.00 99 1017.1
20260831071227 60 0.0 0.0 0.00 1.26 0.00 99 1017.2
20260831070726 60 0.0 0.0 0.00 1.26 0.00 99 1017.1
20260831070225 60 0.0 0.0 0.00 1.26 0.00 99 1017.0
20260831065723 59 0.0 0.0 0.00 1.26 0.00 99 1017.2
20260831065222 59 0.0 0.0 0.00 1.26 0.00 99 1017.4
20260831064721 59 0.0 0.0 0.00 1.26 0.00 99 1017.6
20260831064219 59 0.0 0.0 0.00 1.26 0.00 99 1017.7
20260831063718 59 0.0 0.0 0.00 1.26 0.00 99 1017.8
20260831063216 59 0.0 0.0 0.00 1.26 0.00 99 1017.8
20260831062714 59 0.0 0.0 0.00 1.26 0.00 99 1017.9
20260831062212 59 0.0 0.0 0.00 1.26 0.00 99 1018.0
20260831061711 59 0.0 0.0 0.00 1.26 0.00 99 1018.0
20260831061209 59 0.0 0.0 0.00 1.26 0.00 99 1018.4
20260831060707 59 0.0 0.0 0.00 1.26 0.00 99 1018.5
20260831060206 59 0.0 0.0 0.00 1.26 0.00 99 1018.2
20260831055704 60 0.0 0.0 0.00 1.26 0.00 99 1017.9
20260831055203 60 0.0 0.0 0.00 1.26 0.00 99 1018.5
20260831054701 60 0.0 0.0 0.00 1.26 0.00 99 1018.3
20260831054159 60 0.0 0.0 0.00 1.26 0.00 99 1018.3
20260831053657 60 0.0 0.0 0.00 1.26 0.00 99 1018.7
20260831053156 60 0.0 0.0 0.00 1.26 0.00 99 1018.6
20260831052654 60 0.0 0.0 0.00 1.26 0.00 99 1018.7
20260831052153 60 0.0 0.0 0.00 1.26 0.00 99 1018.3
20260831051651 60 0.0 0.0 0.00 1.26 0.00 99 1018.5
20260831051150 60 0.0 0.0 0.00 1.26 0.00 99 1017.5
20260831050648 60 0.0 0.0 0.00 1.26 0.00 99 1017.3
20260831050147 60 0.0 0.0 0.00 1.26 0.00 99 1017.2
20260831045645 60 0.0 0.0 0.00 1.26 0.00 99 1016.8
20260831045144 60 0.0 0.0 0.00 1.26 0.00 99 1016.8
20260831044642 60 0.0 0.0 0.00 1.26 0.00 99 1016.8
20260831044141 60 0.0 0.0 0.00 1.26 0.00 99 1016.8
20260831043639 60 0.0 0.0 0.00 1.26 0.00 99 1016.9
20260831043138 60 0.0 0.0 0.00 1.26 0.00 99 1016.9
20260831042636 60 0.0 0.0 0.00 1.26 0.00 99 1017.0
20260831042134 60 0.0 0.0 0.00 1.26 0.00 99 1016.9
20260831041633 59 0.0 0.0 0.00 1.26 0.00 99 1017.0
20260831041131 59 0.0 0.0 0.00 1.26 0.00 99 1016.9
20260831040630 60 0.0 0.0 0.00 1.26 0.00 99 1017.1
20260831040128 60 0.0 0.0 0.00 1.26 0.00 99 1017.1
20260831035627 60 0.0 0.0 0.00 1.26 0.00 99 1017.2
20260831035125 60 0.0 0.0 0.00 1.26 0.00 99 1017.3
20260831034623 60 0.0 0.0 0.00 1.26 0.00 99 1017.4
20260831034122 60 0.0 0.0 0.00 1.26 0.00 99 1017.7
20260831033620 59 0.0 0.0 0.00 1.26 0.00 99 1017.6
20260831033119 60 0.0 0.0 0.00 1.26 0.00 99 1017.6
20260831032617 59 0.0 0.0 0.00 1.26 0.00 99 1017.3
20260831032116 60 0.0 0.0 0.00 1.26 0.00 99 1017.3
20260831031614 60 0.0 0.0 0.08 1.26 0.00 99 1017.5
20260831031112 60 0.0 0.0 0.08 1.26 0.00 99 1017.8
20260831030611 60 0.0 0.0 0.26 1.26 0.00 99 1018.0
20260831030109 60 0.0 0.0 0.26 1.26 0.00 99 1018.2
20260831025607 59 0.0 0.0 0.26 1.26 1.26 99 1018.3
20260831025106 60 0.0 0.0 0.26 1.26 1.26 99 1018.0
20260831024604 60 0.0 0.0 0.27 1.26 1.26 99 1017.8
20260831024103 60 0.0 0.0 0.27 1.26 1.26 99 1017.9
20260831023601 60 0.0 0.0 0.29 1.26 1.26 99 1018.0
20260831023100 60 0.0 0.0 0.29 1.26 1.26 99 1018.2
20260831022558 60 0.0 0.0 0.29 1.26 1.26 99 1018.7
20260831022056 60 0.0 0.0 0.29 1.26 1.26 99 1018.8
20260831021555 60 0.0 0.0 0.28 1.25 1.25 99 1018.3
20260831021053 60 0.0 0.0 0.24 1.21 1.21 99 1018.4
20260831020552 60 0.0 0.0 0.06 1.03 1.03 99 1019.6
20260831020050 60 0.0 0.0 0.03 1.00 1.00 99 1018.4
20260831015547 60 0.0 0.0 0.03 1.00 1.00 99 1017.3
20260831015045 60 0.0 0.0 0.03 1.00 1.00 99 1017.1
20260831014543 60 0.0 0.0 0.02 0.99 0.99 99 1017.0
20260831014041 60 0.0 0.0 0.02 0.99 0.99 99 1017.1
20260831013538 60 0.0 0.0 0.02 0.99 0.99 99 1017.0
20260831013036 60 0.0 0.0 0.00 0.97 0.97 99 1017.0
20260831012533 60 0.0 0.0 0.00 0.97 0.97 99 1017.0
20260831012031 60 0.0 0.0 0.00 0.97 0.97 99 1016.9
20260831011529 60 0.0 0.0 0.00 0.97 0.97 99 1016.9
20260831011027 60 0.0 0.0 0.00 0.97 0.97 99 1017.1
20260831010525 60 0.0 0.0 0.03 0.97 0.97 99 1017.3
20260831010023 60 0.0 0.0 0.03 0.97 0.97 99 1017.5
20260831005520 59 0.0 0.0 0.03 0.97 0.97 99 1017.5
20260831005018 59 0.0 0.0 0.03 0.97 0.97 99 1017.4
20260831004515 59 0.0 0.0 0.03 0.97 0.97 99 1017.4
20260831004013 59 0.0 0.0 0.03 0.97 0.97 99 1017.4
20260831003510 59 0.0 0.0 0.03 0.97 0.97 99 1017.3
20260831003007 59 0.0 0.0 0.03 0.97 0.97 99 1017.8
20260831002505 59 0.0 0.0 0.04 0.97 0.97 99 1018.1
20260831002003 59 0.0 0.0 0.04 0.97 0.97 99 1018.0
20260831001500 59 0.0 0.0 0.04 0.97 0.97 99 1017.7
20260831000958 59 0.0 0.0 0.05 0.97 0.97 99 1018.0
20260831000456 59 0.0 0.0 0.04 0.96 0.96 99 1018.2
20260830235953 59 0.0 0.0 0.02 0.94 0.94 99 1018.5
20260830235451 60 0.0 0.0 0.02 0.94 0.94 99 1018.7
20260830234948 60 0.0 0.0 0.02 0.94 0.94 99 1017.9
20260830234446 60 0.0 0.0 0.02 0.94 0.94 99 1017.4
20260830233944 59 0.0 0.0 0.02 0.94 0.94 99 1017.5
20260830233441 59 0.0 0.0 0.02 0.94 0.94 99 1017.6
20260830232939 59 0.0 0.0 0.02 0.94 0.94 99 1017.9
20260830232437 60 0.0 0.0 0.01 0.94 0.94 99 1018.8
20260830231936 60 0.0 0.0 0.01 0.94 0.94 99 1018.0
20260830231435 60 0.0 0.0 0.01 0.94 0.94 99 1017.9
20260830230933 59 0.0 0.0 0.03 0.94 0.94 99 1018.0
20260830230431 60 0.0 0.0 0.03 0.94 0.94 99 1018.0
20260830225928 59 0.0 0.0 0.04 0.93 0.93 99 1018.2
20260830225425 59 0.0 0.0 0.04 0.93 0.93 99 1018.0
20260830224923 59 0.0 0.0 0.07 0.93 0.93 99 1017.9
20260830224420 59 0.0 0.0 0.07 0.93 0.93 99 1017.7
20260830223918 59 0.0 0.0 0.09 0.93 0.93 99 1017.7
20260830223416 59 0.0 0.0 0.09 0.93 0.93 99 1017.6
20260830222913 59 0.0 0.0 0.12 0.93 0.93 99 1017.1
20260830222411 59 0.0 0.0 0.12 0.93 0.93 99 1016.9
20260830221909 59 0.0 0.0 0.14 0.93 0.93 99 1017.0
20260830221407 59 0.0 0.0 0.14 0.93 0.93 99 1016.9
20260830220905 60 0.0 0.0 0.14 0.93 0.93 99 1017.1
20260830220403 60 0.0 0.0 0.13 0.92 0.92 99 1017.4
20260830215901 60 0.0 0.0 0.12 0.90 0.90 99 1017.9
20260830215359 60 0.0 0.0 0.11 0.89 0.89 99 1018.1
20260830214856 60 0.0 0.0 0.14 0.89 0.89 99 1018.0
20260830214354 60 0.0 0.0 0.13 0.88 0.88 99 1017.8
20260830213853 60 0.0 0.0 0.14 0.85 0.85 99 1017.6
20260830213350 60 0.0 0.0 0.13 0.84 0.84 99 1017.6
20260830212848 59 0.0 0.0 0.16 0.84 0.84 99 1017.3
20260830212346 59 0.0 0.0 0.14 0.82 0.82 99 1017.4
20260830211843 59 0.0 0.0 0.16 0.81 0.81 99 1017.5
20260830211341 59 0.0 0.0 0.15 0.80 0.80 99 1017.5
20260830210839 59 0.0 0.0 0.16 0.79 0.79 99 1017.6
20260830210337 59 0.0 0.0 0.16 0.79 0.79 99 1017.6
20260830205834 59 0.0 0.0 0.18 0.79 0.79 99 1017.5
20260830205332 59 0.0 0.0 0.18 0.79 0.79 99 1018.2
20260830204829 59 0.0 0.0 0.19 0.78 0.78 99 1017.5
20260830204327 59 0.0 0.0 0.18 0.77 0.77 99 1017.4
20260830203824 59 0.0 0.0 0.17 0.75 0.75 99 1017.9
20260830203322 59 0.0 0.0 0.15 0.73 0.73 99 1018.0
20260830202819 60 0.0 0.0 0.13 0.71 0.71 99 1018.7
20260830202317 60 0.0 0.0 0.11 0.69 0.69 99 1018.8
20260830201815 60 0.0 0.0 0.11 0.68 0.68 99 1019.1
20260830201313 60 0.0 0.0 0.10 0.67 0.67 99 1019.4
20260830200811 61 0.0 0.0 0.09 0.65 0.65 99 1019.7
20260830200309 61 0.0 0.0 0.07 0.63 0.63 99 1019.5
20260830195806 61 0.0 0.0 0.12 0.62 0.62 99 1019.4
20260830195305 61 0.0 0.0 0.12 0.62 0.62 99 1018.9
20260830194802 61 0.0 0.0 0.11 0.61 0.61 99 1019.3
20260830194300 61 0.0 0.0 0.09 0.59 0.59 99 1019.4
20260830193758 61 0.0 0.0 0.09 0.59 0.59 99 1018.1
20260830193256 60 0.0 0.0 0.08 0.58 0.58 99 1017.3
20260830192754 60 0.0 0.0 0.08 0.58 0.58 99 1017.0
20260830192251 60 0.0 0.0 0.08 0.58 0.58 99 1017.1
20260830191749 60 0.0 0.0 0.09 0.57 0.57 99 1016.9
20260830191247 60 0.0 0.0 0.09 0.57 0.57 99 1017.0
20260830190745 59 0.0 0.0 0.10 0.56 0.56 99 1018.2
20260830190242 59 0.0 0.0 0.10 0.56 0.56 99 1018.5
20260830185740 59 0.0 0.0 0.12 0.55 0.55 99 1018.5
20260830185237 59 0.0 0.0 0.09 0.52 0.52 99 1019.0
20260830184734 59 0.0 0.0 0.21 0.50 0.50 99 1018.8
20260830184232 59 0.0 0.0 0.21 0.50 0.50 99 1018.6
20260830183730 59 0.0 0.0 0.25 0.50 0.50 99 1018.6
20260830183228 59 0.0 0.0 0.25 0.50 0.50 99 1018.6
20260830182726 59 0.0 0.0 0.25 0.50 0.50 99 1018.0
20260830182224 59 0.0 0.0 0.25 0.50 0.50 99 1017.9
20260830181722 59 0.0 0.0 0.24 0.49 0.49 99 1018.2
20260830181219 59 0.0 0.0 0.24 0.49 0.49 99 1018.3
20260830180717 59 0.0 0.0 0.23 0.48 0.48 99 1018.8
20260830180214 59 0.0 0.0 0.22 0.47 0.47 99 1018.6
20260830175712 59 0.0 0.0 0.20 0.45 0.45 99 1018.4
20260830175209 59 0.0 0.0 0.20 0.45 0.45 99 1017.6
20260830174707 59 0.0 0.0 0.16 0.41 0.41 99 1018.2
20260830174205 59 0.0 0.0 0.08 0.33 0.33 99 1018.7
20260830173703 61 0.0 0.0 0.01 0.27 0.27 97 1017.9
20260830173200 61 0.0 0.0 0.00 0.26 0.26 96 1017.0